Time,TemperatureF,DewpointF,PressureIn,WindDirection,WindDirectionDegrees,WindSpeedMPH,WindSpeedGustMPH,Humidity,HourlyPrecipIn,Conditions,Clouds,dailyrainin,SoftwareType,DateUTC
2013-09-04 00:01:00,58.2,53.7,30.28,NNW,338,57.0,0.0,85,0.00,,CLR,0.00,VWS V13.01,2013-09-04 04:01:00,
2013-09-04 00:02:00,58.2,53.7,30.28,NNW,338,57.0,0.0,85,0.00,,CLR,0.00,VWS V13.01,2013-09-04 04:02:00,
2013-09-04 00:05:00,58.2,53.6,30.28,NNW,338,57.0,0.0,85,0.00,,CLR,0.00,VWS V13.01,2013-09-04 04:05:00,
2013-09-04 00:10:00,58.1,53.6,30.28,NNW,338,57.0,0.0,86,0.00,,CLR,0.00,VWS V13.01,2013-09-04 04:10:00,
2013-09-04 00:15:00,57.9,53.7,30.28,NNW,338,57.0,0.0,86,0.00,,CLR,0.00,VWS V13.01,2013-09-04 04:15:00,
2013-09-04 00:20:00,57.9,53.7,30.28,NNW,338,57.0,0.0,86,0.00,,CLR,0.00,VWS V13.01,2013-09-04 04:20:00,
2013-09-04 00:25:00,57.7,53.2,30.28,NNW,338,57.0,0.0,85,0.00,,CLR,0.00,VWS V13.01,2013-09-04 04:25:00,
2013-09-04 00:30:00,57.7,53.3,30.28,NNW,338,57.0,0.0,86,0.00,,CLR,0.00,VWS V13.01,2013-09-04 04:30:00,
2013-09-04 00:35:00,57.5,53.2,30.28,NNW,338,57.0,0.0,86,0.00,,CLR,0.00,VWS V13.01,2013-09-04 04:35:00,
2013-09-04 00:40:00,57.3,53.2,30.28,NNW,338,57.0,0.0,86,0.00,,CLR,0.00,VWS V13.01,2013-09-04 04:40:00,
2013-09-04 00:45:00,57.3,53.2,30.28,NNW,338,57.0,0.0,86,0.00,,CLR,0.00,VWS V13.01,2013-09-04 04:45:00,
2013-09-04 00:50:00,57.3,52.9,30.28,NNW,338,57.0,0.0,86,0.00,,CLR,0.00,VWS V13.01,2013-09-04 04:50:00,
2013-09-04 00:55:00,57.0,52.9,30.29,NNW,338,57.0,0.0,86,0.00,,CLR,0.00,VWS V13.01,2013-09-04 04:55:00,
2013-09-04 01:00:00,57.0,52.9,30.29,NNW,338,57.0,0.0,86,0.00,,CLR,0.00,VWS V13.01,2013-09-04 05:00:00,
2013-09-04 01:05:00,57.0,52.9,30.29,NNW,338,57.0,0.0,86,0.00,,CLR,0.00,VWS V13.01,2013-09-04 05:05:00,
2013-09-04 01:10:00,56.8,52.7,30.28,NNW,338,57.0,0.0,86,0.00,,CLR,0.00,VWS V13.01,2013-09-04 05:10:00,
2013-09-04 01:15:00,56.8,52.7,30.29,NNW,338,57.0,0.0,86,0.00,,CLR,0.00,VWS V13.01,2013-09-04 05:15:00,
2013-09-04 01:20:00,56.6,52.5,30.29,NNW,338,57.0,0.0,86,0.00,,CLR,0.00,VWS V13.01,2013-09-04 05:20:00,
2013-09-04 01:25:00,56.4,52.3,30.29,NNW,338,57.0,0.0,86,0.00,,CLR,0.00,VWS V13.01,2013-09-04 05:25:00,
2013-09-04 01:30:00,56.4,52.6,30.28,NNW,338,57.0,0.0,87,0.00,,CLR,0.00,VWS V13.01,2013-09-04 05:30:00,
2013-09-04 01:36:00,56.4,52.6,30.29,NNW,338,57.0,0.0,87,0.00,,CLR,0.00,VWS V13.01,2013-09-04 05:36:00,
2013-09-04 01:41:00,56.3,52.5,30.29,NNW,338,57.0,0.0,87,0.00,,CLR,0.00,VWS V13.01,2013-09-04 05:41:00,
2013-09-04 01:46:00,56.3,52.5,30.29,NNW,338,57.0,0.0,87,0.00,,CLR,0.00,VWS V13.01,2013-09-04 05:46:00,
2013-09-04 01:51:00,56.1,52.3,30.29,NNW,338,57.0,0.0,87,0.00,,CLR,0.00,VWS V13.01,2013-09-04 05:51:00,
2013-09-04 01:56:00,55.9,52.3,30.29,NNW,338,57.0,0.0,87,0.00,,CLR,0.00,VWS V13.01,2013-09-04 05:56:00,
2013-09-04 02:01:00,55.9,52.1,30.29,NNW,338,57.0,0.0,87,0.00,,,0.00,VWS V13.01,2013-09-04 06:01:00,
2013-09-04 02:06:00,55.9,52.1,30.29,NNW,338,57.0,0.0,87,0.00,,,0.00,VWS V13.01,2013-09-04 06:06:00,
2013-09-04 02:11:00,55.9,52.1,30.29,NNW,338,57.0,0.0,87,0.00,,,0.00,VWS V13.01,2013-09-04 06:11:00,
2013-09-04 02:16:00,55.7,51.9,30.29,NNW,338,57.0,0.0,87,0.00,,,0.00,VWS V13.01,2013-09-04 06:16:00,
2013-09-04 02:21:00,55.7,51.7,30.29,NNW,338,57.0,0.0,87,0.00,,,0.00,VWS V13.01,2013-09-04 06:21:00,
2013-09-04 02:26:00,55.5,51.7,30.29,NNW,338,57.0,0.0,87,0.00,,,0.00,VWS V13.01,2013-09-04 06:26:00,
2013-09-04 02:31:00,55.4,51.6,30.29,NNW,338,57.0,0.0,87,0.00,,,0.00,VWS V13.01,2013-09-04 06:31:00,
2013-09-04 02:36:00,55.2,51.6,30.29,NNW,338,57.0,0.0,87,0.00,,,0.00,VWS V13.01,2013-09-04 06:36:00,
2013-09-04 02:41:00,55.2,51.4,30.29,NNW,338,57.0,0.0,87,0.00,,CLR,0.00,VWS V13.01,2013-09-04 06:41:00,
2013-09-04 02:46:00,55.2,51.4,30.29,NNW,338,57.0,0.0,88,0.00,,CLR,0.00,VWS V13.01,2013-09-04 06:46:00,
2013-09-04 02:51:00,55.2,51.7,30.29,NNW,338,57.0,0.0,88,0.00,,CLR,0.00,VWS V13.01,2013-09-04 06:51:00,
2013-09-04 02:56:00,55.2,51.7,30.29,NNW,338,57.0,0.0,88,0.00,,CLR,0.00,VWS V13.01,2013-09-04 06:56:00,
2013-09-04 03:01:00,55.2,51.7,30.30,NNW,338,57.0,0.0,88,0.00,,CLR,0.00,VWS V13.01,2013-09-04 07:01:00,
2013-09-04 03:06:00,55.2,51.7,30.29,NNW,338,57.0,0.0,88,0.00,,CLR,0.00,VWS V13.01,2013-09-04 07:06:00,
2013-09-04 03:11:00,55.0,51.5,30.29,NNW,338,57.0,0.0,87,0.00,,CLR,0.00,VWS V13.01,2013-09-04 07:11:00,
2013-09-04 03:16:00,55.0,51.5,30.29,NNW,338,57.0,0.0,88,0.00,,CLR,0.00,VWS V13.01,2013-09-04 07:16:00,
2013-09-04 03:21:00,55.2,51.7,30.29,NNW,338,57.0,0.0,88,0.00,,CLR,0.00,VWS V13.01,2013-09-04 07:21:00,
2013-09-04 03:26:00,55.2,51.7,30.29,NNW,338,57.0,0.0,88,0.00,,CLR,0.00,VWS V13.01,2013-09-04 07:26:00,
2013-09-04 03:31:00,55.2,51.7,30.29,NNE,22,57.0,0.0,88,0.00,,CLR,0.00,VWS V13.01,2013-09-04 07:31:00,
2013-09-04 03:36:00,55.0,51.2,30.30,NE,45,57.0,0.0,87,0.00,,CLR,0.00,VWS V13.01,2013-09-04 07:36:00,
2013-09-04 03:41:00,55.0,51.3,30.30,NE,45,57.0,0.0,88,0.00,,,0.00,VWS V13.01,2013-09-04 07:41:00,
2013-09-04 03:46:00,54.8,51.1,30.30,NE,45,57.0,0.0,88,0.00,,,0.00,VWS V13.01,2013-09-04 07:46:00,
2013-09-04 03:51:00,54.6,51.1,30.30,NE,45,57.0,0.0,88,0.00,,,0.00,VWS V13.01,2013-09-04 07:51:00,
2013-09-04 03:56:00,54.6,51.1,30.30,NE,45,57.0,0.0,88,0.00,,,0.00,VWS V13.01,2013-09-04 07:56:00,
2013-09-04 04:01:00,54.6,51.1,30.30,NE,45,57.0,0.0,88,0.00,,,0.00,VWS V13.01,2013-09-04 08:01:00,
2013-09-04 04:06:00,54.8,51.1,30.29,NE,45,57.0,0.0,88,0.00,,,0.00,VWS V13.01,2013-09-04 08:06:00,
2013-09-04 04:11:00,54.6,51.1,30.30,NE,45,57.0,0.0,88,0.00,,,0.00,VWS V13.01,2013-09-04 08:11:00,
2013-09-04 04:16:00,54.8,51.3,30.30,NE,45,57.0,0.0,88,0.00,,,0.00,VWS V13.01,2013-09-04 08:16:00,
2013-09-04 04:21:00,54.6,51.1,30.30,NE,45,57.0,0.0,88,0.00,,,0.00,VWS V13.01,2013-09-04 08:21:00,
2013-09-04 04:26:00,54.5,51.0,30.29,NE,45,57.0,0.0,88,0.00,,,0.00,VWS V13.01,2013-09-04 08:26:00,
2013-09-04 04:31:00,54.3,50.8,30.30,NE,45,57.0,0.0,88,0.00,,,0.00,VWS V13.01,2013-09-04 08:31:00,
2013-09-04 04:36:00,54.3,50.8,30.29,NE,45,57.0,0.0,88,0.00,,,0.00,VWS V13.01,2013-09-04 08:36:00,
2013-09-04 04:41:00,54.3,50.6,30.29,NE,45,57.0,0.0,88,0.00,,,0.00,VWS V13.01,2013-09-04 08:41:00,
2013-09-04 04:46:00,54.1,50.4,30.29,NE,45,57.0,0.0,88,0.00,,,0.00,VWS V13.01,2013-09-04 08:46:00,
2013-09-04 04:51:00,53.7,50.2,30.29,NE,45,57.0,0.0,88,0.00,,,0.00,VWS V13.01,2013-09-04 08:51:00,
2013-09-04 04:56:00,53.4,49.9,30.30,NE,45,57.0,0.0,88,0.00,,,0.00,VWS V13.01,2013-09-04 08:56:00,
2013-09-04 05:01:00,53.4,49.9,30.30,NE,45,57.0,0.0,88,0.00,,,0.00,VWS V13.01,2013-09-04 09:01:00,
2013-09-04 05:06:00,53.2,49.7,30.30,NE,45,57.0,0.0,88,0.00,,,0.00,VWS V13.01,2013-09-04 09:06:00,
2013-09-04 05:11:00,53.2,49.5,30.30,NE,45,57.0,0.0,88,0.00,,,0.00,VWS V13.01,2013-09-04 09:11:00,
2013-09-04 05:16:00,52.8,49.3,30.31,NE,45,57.0,0.0,88,0.00,,,0.00,VWS V13.01,2013-09-04 09:16:00,
2013-09-04 05:21:00,52.8,49.3,30.30,East,90,57.0,0.0,89,0.00,,,0.00,VWS V13.01,2013-09-04 09:21:00,
2013-09-04 05:26:00,52.8,49.7,30.31,SSE,158,57.0,0.0,89,0.00,,,0.00,VWS V13.01,2013-09-04 09:26:00,
2013-09-04 05:31:00,52.8,49.7,30.31,SSE,158,57.0,0.0,89,0.00,,,0.00,VWS V13.01,2013-09-04 09:31:00,
2013-09-04 05:36:00,52.8,49.7,30.31,SSE,158,57.0,0.0,89,0.00,,,0.00,VWS V13.01,2013-09-04 09:36:00,
2013-09-04 05:41:00,52.8,49.5,30.31,SSE,158,57.0,0.0,89,0.00,,,0.00,VWS V13.01,2013-09-04 09:41:00,
2013-09-04 05:46:00,52.7,49.5,30.31,SSE,158,57.0,0.0,89,0.00,,,0.00,VWS V13.01,2013-09-04 09:46:00,
2013-09-04 05:51:00,52.5,49.4,30.31,SE,135,57.0,0.0,89,0.00,,,0.00,VWS V13.01,2013-09-04 09:51:00,
2013-09-04 05:56:00,52.5,49.2,30.31,SE,135,57.0,0.0,89,0.00,,,0.00,VWS V13.01,2013-09-04 09:56:00,
2013-09-04 06:01:00,52.3,49.2,30.31,SE,135,57.0,0.0,89,0.00,,,0.00,VWS V13.01,2013-09-04 10:01:00,
2013-09-04 06:06:00,52.3,49.0,30.31,SE,135,57.0,0.0,89,0.00,,,0.00,VWS V13.01,2013-09-04 10:06:00,
2013-09-04 06:11:00,52.1,49.0,30.31,SE,135,57.0,0.0,89,0.00,,,0.00,VWS V13.01,2013-09-04 10:11:00,
2013-09-04 06:16:00,52.1,49.0,30.32,SE,135,57.0,0.0,89,0.00,,,0.00,VWS V13.01,2013-09-04 10:16:00,
2013-09-04 06:21:00,52.1,49.0,30.32,SW,225,57.0,0.0,89,0.00,,,0.00,VWS V13.01,2013-09-04 10:21:00,
2013-09-04 06:26:00,52.1,49.0,30.32,SW,225,57.0,0.0,89,0.00,,,0.00,VWS V13.01,2013-09-04 10:26:00,
2013-09-04 06:31:00,52.1,49.2,30.32,SW,225,57.0,0.0,89,0.00,,,0.00,VWS V13.01,2013-09-04 10:31:00,
2013-09-04 06:36:00,52.3,49.2,30.33,SW,225,57.0,0.0,89,0.00,,,0.00,VWS V13.01,2013-09-04 10:36:00,
2013-09-04 06:41:00,52.3,49.2,30.33,SW,225,57.0,0.0,89,0.00,,,0.00,VWS V13.01,2013-09-04 10:41:00,
2013-09-04 06:46:00,52.5,49.4,30.33,SW,225,57.0,0.0,89,0.00,,,0.00,VWS V13.01,2013-09-04 10:46:00,
2013-09-04 06:51:00,52.5,49.4,30.33,SW,225,57.0,0.0,89,0.00,,,0.00,VWS V13.01,2013-09-04 10:51:00,
2013-09-04 06:56:00,52.5,49.5,30.33,SW,225,57.0,0.0,89,0.00,,,0.00,VWS V13.01,2013-09-04 10:56:00,
2013-09-04 07:01:00,52.7,49.5,30.33,SW,225,57.0,0.0,89,0.00,,,0.00,VWS V13.01,2013-09-04 11:01:00,
2013-09-04 07:06:00,52.8,49.7,30.33,SW,225,57.0,0.0,89,0.00,,,0.00,VWS V13.01,2013-09-04 11:06:00,
2013-09-04 07:11:00,52.8,49.7,30.34,SW,225,57.0,0.0,89,0.00,,,0.00,VWS V13.01,2013-09-04 11:11:00,
2013-09-04 07:16:00,53.2,50.0,30.34,SW,225,57.0,0.0,89,0.00,,,0.00,VWS V13.01,2013-09-04 11:16:00,
2013-09-04 07:21:00,53.2,50.5,30.34,SW,225,57.0,0.0,90,0.00,,,0.00,VWS V13.01,2013-09-04 11:21:00,
2013-09-04 07:26:00,53.4,50.5,30.34,SW,225,57.0,0.0,90,0.00,,,0.00,VWS V13.01,2013-09-04 11:26:00,
2013-09-04 07:31:00,53.4,50.7,30.34,SW,225,57.0,0.0,90,0.00,,,0.00,VWS V13.01,2013-09-04 11:31:00,
2013-09-04 07:36:00,53.4,50.8,30.34,SW,225,57.0,0.0,90,0.00,,,0.00,VWS V13.01,2013-09-04 11:36:00,
2013-09-04 07:41:00,53.7,50.5,30.34,SW,225,57.0,0.0,90,0.00,,,0.00,VWS V13.01,2013-09-04 11:41:00,
2013-09-04 07:46:00,53.7,50.8,30.34,East,90,57.0,0.0,90,0.00,,,0.00,VWS V13.01,2013-09-04 11:46:00,
2013-09-04 07:51:00,53.7,50.8,30.34,NE,45,57.0,0.0,90,0.00,,,0.00,VWS V13.01,2013-09-04 11:51:00,
2013-09-04 07:56:00,53.7,50.8,30.34,NE,45,57.0,0.0,90,0.00,,,0.00,VWS V13.01,2013-09-04 11:56:00,
2013-09-04 08:01:00,53.7,50.8,30.34,NE,45,57.0,0.0,90,0.00,,,0.00,VWS V13.01,2013-09-04 12:01:00,
2013-09-04 08:06:00,53.7,51.0,30.35,ENE,68,57.0,0.0,90,0.00,,,0.00,VWS V13.01,2013-09-04 12:06:00,
2013-09-04 08:11:00,53.7,51.0,30.35,ENE,68,57.0,0.0,90,0.00,,,0.00,VWS V13.01,2013-09-04 12:11:00,
2013-09-04 08:16:00,53.7,51.0,30.35,ENE,68,57.0,0.0,90,0.00,,,0.00,VWS V13.01,2013-09-04 12:16:00,
2013-09-04 08:21:00,54.1,51.0,30.35,SE,135,57.0,0.0,90,0.00,,,0.00,VWS V13.01,2013-09-04 12:21:00,
2013-09-04 08:26:00,53.9,51.2,30.35,ENE,68,57.0,0.0,90,0.00,,,0.00,VWS V13.01,2013-09-04 12:26:00,
2013-09-04 08:31:00,53.9,51.2,30.35,East,90,57.0,0.0,90,0.00,,,0.00,VWS V13.01,2013-09-04 12:31:00,
2013-09-04 08:36:00,54.3,51.4,30.35,ENE,68,57.0,0.0,90,0.00,,,0.00,VWS V13.01,2013-09-04 12:36:00,
2013-09-04 08:41:00,54.3,51.4,30.35,ENE,68,57.0,0.0,90,0.00,,,0.00,VWS V13.01,2013-09-04 12:41:00,
2013-09-04 08:46:00,54.3,51.6,30.35,South,180,57.0,0.0,90,0.00,,,0.00,VWS V13.01,2013-09-04 12:46:00,
2013-09-04 08:51:00,54.6,51.7,30.35,SSW,202,57.0,0.0,90,0.00,,,0.00,VWS V13.01,2013-09-04 12:51:00,
2013-09-04 08:56:00,54.6,51.7,30.35,North,0,57.0,0.0,90,0.00,,,0.00,VWS V13.01,2013-09-04 12:56:00,
2013-09-04 09:01:00,54.6,51.7,30.35,SSE,158,57.0,0.0,90,0.00,,,0.00,VWS V13.01,2013-09-04 13:01:00,
2013-09-04 09:06:00,54.6,52.1,30.35,SSE,158,57.0,0.0,90,0.00,,,0.00,VWS V13.01,2013-09-04 13:06:00,
2013-09-04 09:11:00,54.6,52.3,30.35,SSE,158,57.0,0.0,90,0.00,,,0.00,VWS V13.01,2013-09-04 13:11:00,
2013-09-04 09:16:00,54.6,52.5,30.35,SSE,158,57.0,0.0,90,0.00,,,0.00,VWS V13.01,2013-09-04 13:16:00,
2013-09-04 09:21:00,54.6,52.6,30.36,SSE,158,57.0,0.0,90,0.00,,,0.00,VWS V13.01,2013-09-04 13:21:00,
2013-09-04 09:26:00,54.6,53.0,30.36,SSE,158,57.0,0.0,90,0.00,,,0.00,VWS V13.01,2013-09-04 13:26:00,
2013-09-04 09:31:00,56.1,53.2,30.36,West,270,57.0,0.0,90,0.00,,,0.00,VWS V13.01,2013-09-04 13:31:00,
2013-09-04 09:36:00,56.1,53.2,30.35,WSW,248,57.0,0.0,90,0.00,,,0.00,VWS V13.01,2013-09-04 13:36:00,
2013-09-04 09:41:00,56.1,53.4,30.36,WSW,248,57.0,0.0,90,0.00,,,0.00,VWS V13.01,2013-09-04 13:41:00,
2013-09-04 09:46:00,56.3,53.5,30.36,West,270,57.0,0.0,90,0.00,,,0.00,VWS V13.01,2013-09-04 13:46:00,
2013-09-04 09:51:00,56.4,53.5,30.36,SW,225,57.0,0.0,90,0.00,,,0.00,VWS V13.01,2013-09-04 13:51:00,
2013-09-04 09:56:00,56.8,53.7,30.36,West,270,57.0,0.0,90,0.00,,,0.00,VWS V13.01,2013-09-04 13:56:00,
2013-09-04 10:01:00,56.8,53.9,30.36,West,270,57.0,0.0,90,0.00,,,0.00,VWS V13.01,2013-09-04 14:01:00,
2013-09-04 10:06:00,56.8,54.1,30.36,West,270,57.0,0.0,90,0.00,,,0.00,VWS V13.01,2013-09-04 14:06:00,
2013-09-04 10:11:00,57.3,54.4,30.36,West,270,57.0,0.0,90,0.00,,,0.00,VWS V13.01,2013-09-04 14:11:00,
2013-09-04 10:16:00,57.3,54.6,30.36,West,270,57.0,0.0,90,0.00,,,0.00,VWS V13.01,2013-09-04 14:16:00,
2013-09-04 10:21:00,57.7,55.0,30.36,West,270,57.0,0.0,90,0.00,,,0.00,VWS V13.01,2013-09-04 14:21:00,
2013-09-04 10:26:00,57.7,55.0,30.36,NW,315,57.0,0.0,90,0.00,,,0.00,VWS V13.01,2013-09-04 14:26:00,
2013-09-04 10:31:00,57.9,54.7,30.36,NW,315,57.0,0.0,90,0.00,,,0.00,VWS V13.01,2013-09-04 14:31:00,
2013-09-04 10:36:00,58.1,54.9,30.36,NW,315,2.6,0.0,89,0.00,,,0.00,VWS V13.01,2013-09-04 14:36:00,
2013-09-04 10:41:00,58.1,54.7,30.37,NW,315,2.6,0.0,89,0.00,,,0.00,VWS V13.01,2013-09-04 14:41:00,
2013-09-04 10:46:00,57.9,54.9,30.37,WSW,248,1.3,0.0,89,0.00,,,0.00,VWS V13.01,2013-09-04 14:46:00,
2013-09-04 10:51:00,58.2,55.0,30.37,West,270,1.3,0.0,89,0.00,,,0.00,VWS V13.01,2013-09-04 14:51:00,
2013-09-04 10:56:00,58.2,55.6,30.37,WSW,248,2.6,0.0,89,0.00,,,0.00,VWS V13.01,2013-09-04 14:56:00,
2013-09-04 11:01:00,59.1,56.4,30.37,WSW,248,2.6,0.0,90,0.00,,OVC003,0.00,VWS V13.01,2013-09-04 15:01:00,
2013-09-04 11:06:00,59.5,56.5,30.37,WSW,248,1.1,0.0,89,0.00,,OVC003,0.00,VWS V13.01,2013-09-04 15:06:00,
2013-09-04 11:11:00,59.9,56.8,30.37,SW,225,0.2,0.0,89,0.00,,OVC003,0.00,VWS V13.01,2013-09-04 15:11:00,
2013-09-04 11:16:00,60.4,57.2,30.37,WNW,292,0.2,0.0,89,0.00,,OVC003,0.00,VWS V13.01,2013-09-04 15:16:00,
2013-09-04 11:21:00,60.6,57.0,30.37,West,270,0.2,0.0,88,0.00,,OVC003,0.00,VWS V13.01,2013-09-04 15:21:00,
2013-09-04 11:26:00,60.9,57.2,30.36,WSW,248,0.6,0.0,88,0.00,,OVC003,0.00,VWS V13.01,2013-09-04 15:26:00,
2013-09-04 11:31:00,61.1,57.7,30.37,West,270,4.2,0.0,88,0.00,,OVC003,0.00,VWS V13.01,2013-09-04 15:31:00,
2013-09-04 11:36:00,61.7,57.8,30.37,NNW,338,4.6,0.0,87,0.00,,OVC003,0.00,VWS V13.01,2013-09-04 15:36:00,
2013-09-04 11:41:00,62.2,58.3,30.37,WSW,248,4.4,0.0,87,0.00,,BKN007,0.00,VWS V13.01,2013-09-04 15:41:00,
2013-09-04 11:46:00,62.4,58.8,30.36,West,270,57.0,0.0,87,0.00,,BKN007,0.00,VWS V13.01,2013-09-04 15:46:00,
2013-09-04 11:51:00,63.1,59.0,30.37,West,270,1.3,0.0,86,0.00,,BKN007,0.00,VWS V13.01,2013-09-04 15:51:00,
2013-09-04 11:56:00,63.6,59.2,30.36,West,270,3.5,0.0,86,0.00,,BKN007,0.00,VWS V13.01,2013-09-04 15:56:00,
2013-09-04 12:01:00,64.4,59.6,30.36,WSW,248,3.5,0.0,85,0.00,,SCT009,0.00,VWS V13.01,2013-09-04 16:01:00,
2013-09-04 12:06:00,64.9,59.8,30.36,NW,315,2.4,0.0,84,0.00,,SCT009,0.00,VWS V13.01,2013-09-04 16:06:00,
2013-09-04 12:11:00,65.3,60.0,30.36,North,0,57.0,0.0,83,0.00,,SCT009,0.00,VWS V13.01,2013-09-04 16:11:00,
2013-09-04 12:16:00,65.4,60.0,30.36,West,270,2.2,0.0,82,0.00,,SCT009,0.00,VWS V13.01,2013-09-04 16:16:00,
2013-09-04 12:24:00,66.0,60.2,30.36,WSW,248,3.1,0.0,81,0.00,,SCT009,0.00,VWS V13.01,2013-09-04 16:24:00,
2013-09-04 12:29:00,66.0,60.0,30.36,SW,225,1.3,0.0,80,0.00,,SCT009,0.00,VWS V13.01,2013-09-04 16:29:00,
2013-09-04 12:35:00,66.0,60.7,30.36,WNW,292,2.0,0.0,80,0.00,,SCT009,0.00,VWS V13.01,2013-09-04 16:35:00,
2013-09-04 12:40:00,66.7,60.8,30.36,NW,315,2.9,0.0,81,0.00,,SCT009,0.00,VWS V13.01,2013-09-04 16:40:00,
2013-09-04 12:45:00,67.2,60.5,30.36,West,270,2.0,0.0,80,0.00,,CLR,0.00,VWS V13.01,2013-09-04 16:45:00,
2013-09-04 12:51:00,68.1,61.1,30.36,West,270,2.0,0.0,79,0.00,,CLR,0.00,VWS V13.01,2013-09-04 16:51:00,
2013-09-04 12:56:00,68.5,61.0,30.35,NW,315,2.9,0.0,78,0.00,,CLR,0.00,VWS V13.01,2013-09-04 16:56:00,
2013-09-04 13:01:00,68.7,61.2,30.35,WNW,292,2.2,0.0,77,0.00,,CLR,0.00,VWS V13.01,2013-09-04 17:01:00,
2013-09-04 13:06:00,69.0,61.0,30.35,NE,45,1.3,0.0,76,0.00,,CLR,0.00,VWS V13.01,2013-09-04 17:06:00,
2013-09-04 13:11:00,69.6,61.9,30.35,NNW,338,0.6,0.0,76,0.00,,CLR,0.00,VWS V13.01,2013-09-04 17:11:00,
2013-09-04 13:16:00,69.9,62.0,30.35,West,270,4.6,0.0,76,0.00,,CLR,0.00,VWS V13.01,2013-09-04 17:16:00,
2013-09-04 13:21:00,70.3,62.0,30.35,WNW,292,1.3,0.0,74,0.00,,CLR,0.00,VWS V13.01,2013-09-04 17:21:00,
2013-09-04 13:26:00,70.5,61.8,30.34,WSW,248,1.7,0.0,74,0.00,,CLR,0.00,VWS V13.01,2013-09-04 17:26:00,
2013-09-04 13:32:00,70.7,61.6,30.34,WSW,248,1.7,0.0,73,0.00,,CLR,0.00,VWS V13.01,2013-09-04 17:32:00,
2013-09-04 13:37:00,71.2,61.7,30.35,SW,225,0.6,0.0,72,0.00,,CLR,0.00,VWS V13.01,2013-09-04 17:37:00,
2013-09-04 13:42:00,71.2,61.9,30.35,WSW,248,1.3,0.0,72,0.00,,CLR,0.00,VWS V13.01,2013-09-04 17:42:00,
2013-09-04 13:47:00,71.7,62.4,30.35,WSW,248,2.2,0.0,72,0.00,,CLR,0.00,VWS V13.01,2013-09-04 17:47:00,
2013-09-04 13:52:00,72.1,62.6,30.35,SW,225,1.1,0.0,72,0.00,,CLR,0.00,VWS V13.01,2013-09-04 17:52:00,
2013-09-04 13:57:00,72.1,62.8,30.35,WNW,292,4.9,0.0,72,0.00,,CLR,0.00,VWS V13.01,2013-09-04 17:57:00,
2013-09-04 14:02:00,72.3,62.4,30.35,West,270,3.3,0.0,71,0.00,,CLR,0.00,VWS V13.01,2013-09-04 18:02:00,
2013-09-04 14:07:00,72.5,62.2,30.35,WSW,248,5.5,0.0,71,0.00,,CLR,0.00,VWS V13.01,2013-09-04 18:07:00,
2013-09-04 14:12:00,72.6,62.2,30.35,NNW,338,2.4,0.0,70,0.00,,CLR,0.00,VWS V13.01,2013-09-04 18:12:00,
2013-09-04 14:17:00,72.6,61.9,30.35,WSW,248,2.0,0.0,70,0.00,,CLR,0.00,VWS V13.01,2013-09-04 18:17:00,
2013-09-04 14:22:00,72.6,62.0,30.35,NW,315,3.8,0.0,69,0.00,,CLR,0.00,VWS V13.01,2013-09-04 18:22:00,
2013-09-04 14:27:00,72.8,61.8,30.35,South,180,1.5,0.0,69,0.00,,CLR,0.00,VWS V13.01,2013-09-04 18:27:00,
2013-09-04 14:32:00,73.0,62.0,30.35,SW,225,57.0,0.0,68,0.00,,CLR,0.00,VWS V13.01,2013-09-04 18:32:00,
2013-09-04 14:37:00,73.4,61.9,30.35,West,270,2.0,0.0,67,0.00,,CLR,0.00,VWS V13.01,2013-09-04 18:37:00,
2013-09-04 14:42:00,73.5,61.5,30.34,West,270,0.6,0.0,67,0.00,,CLR,0.00,VWS V13.01,2013-09-04 18:42:00,
2013-09-04 14:47:00,73.5,61.5,30.34,SSW,202,2.9,0.0,66,0.00,,CLR,0.00,VWS V13.01,2013-09-04 18:47:00,
2013-09-04 14:52:00,73.5,61.7,30.34,West,270,0.8,0.0,66,0.00,,CLR,0.00,VWS V13.01,2013-09-04 18:52:00,
2013-09-04 14:57:00,73.9,61.4,30.35,North,0,57.0,0.0,65,0.00,,CLR,0.00,VWS V13.01,2013-09-04 18:57:00,
2013-09-04 15:02:00,73.9,61.4,30.35,North,0,57.0,0.0,65,0.00,,CLR,0.00,VWS V13.01,2013-09-04 19:02:00,
2013-09-04 15:07:00,74.1,61.3,30.34,West,270,2.9,0.0,65,0.00,,CLR,0.00,VWS V13.01,2013-09-04 19:07:00,
2013-09-04 15:12:00,74.4,61.9,30.34,WSW,248,4.2,0.0,65,0.00,,CLR,0.00,VWS V13.01,2013-09-04 19:12:00,
2013-09-04 15:17:00,74.4,61.9,30.34,SW,225,4.0,0.0,65,0.00,,CLR,0.00,VWS V13.01,2013-09-04 19:17:00,
2013-09-04 15:22:00,74.4,61.9,30.33,SSW,202,4.9,0.0,65,0.00,,CLR,0.00,VWS V13.01,2013-09-04 19:22:00,
2013-09-04 15:27:00,74.4,62.7,30.33,WNW,292,57.0,0.0,66,0.00,,CLR,0.00,VWS V13.01,2013-09-04 19:27:00,
2013-09-04 15:32:00,75.0,62.9,30.33,SSW,202,3.3,0.0,66,0.00,,CLR,0.00,VWS V13.01,2013-09-04 19:32:00,
2013-09-04 15:37:00,75.0,62.9,30.33,WSW,248,57.0,0.0,66,0.00,,CLR,0.00,VWS V13.01,2013-09-04 19:37:00,
2013-09-04 15:42:00,75.3,63.1,30.33,West,270,5.3,0.0,66,0.00,,CLR,0.00,VWS V13.01,2013-09-04 19:42:00,
2013-09-04 15:47:00,75.3,62.9,30.33,West,270,5.8,0.0,66,0.00,,CLR,0.00,VWS V13.01,2013-09-04 19:47:00,
2013-09-04 15:52:00,75.0,62.9,30.33,WSW,248,5.8,0.0,66,0.00,,CLR,0.00,VWS V13.01,2013-09-04 19:52:00,
2013-09-04 15:57:00,75.0,62.9,30.32,SW,225,5.8,0.0,67,0.00,,CLR,0.00,VWS V13.01,2013-09-04 19:57:00,
2013-09-04 16:02:00,75.0,63.1,30.32,SW,225,1.1,0.0,67,0.00,,CLR,0.00,VWS V13.01,2013-09-04 20:02:00,
2013-09-04 16:07:00,75.3,63.4,30.32,WNW,292,1.7,0.0,66,0.00,,CLR,0.00,VWS V13.01,2013-09-04 20:07:00,
2013-09-04 16:12:00,75.7,63.5,30.32,SSW,202,3.1,0.0,66,0.00,,CLR,0.00,VWS V13.01,2013-09-04 20:12:00,
2013-09-04 16:17:00,75.7,63.5,30.32,WSW,248,1.3,0.0,66,0.00,,CLR,0.00,VWS V13.01,2013-09-04 20:17:00,
2013-09-04 16:22:00,75.7,63.5,30.33,SSW,202,5.5,0.0,66,0.00,,CLR,0.00,VWS V13.01,2013-09-04 20:22:00,
2013-09-04 16:27:00,75.7,62.9,30.33,SW,225,1.1,0.0,65,0.00,,CLR,0.00,VWS V13.01,2013-09-04 20:27:00,
2013-09-04 16:32:00,75.7,63.5,30.33,SW,225,1.7,0.0,65,0.00,,CLR,0.00,VWS V13.01,2013-09-04 20:32:00,
2013-09-04 16:37:00,75.5,63.4,30.33,WSW,248,1.7,0.0,66,0.00,,CLR,0.00,VWS V13.01,2013-09-04 20:37:00,
2013-09-04 16:42:00,75.5,63.4,30.33,SSE,158,1.1,0.0,66,0.00,,CLR,0.00,VWS V13.01,2013-09-04 20:42:00,
2013-09-04 16:47:00,75.5,62.9,30.33,North,0,57.0,0.0,66,0.00,,CLR,0.00,VWS V13.01,2013-09-04 20:47:00,
2013-09-04 16:53:00,75.5,63.1,30.33,WSW,248,0.8,0.0,66,0.00,,CLR,0.00,VWS V13.01,2013-09-04 20:53:00,
2013-09-04 16:58:00,75.5,63.5,30.33,WSW,248,1.3,0.0,65,0.00,,CLR,0.00,VWS V13.01,2013-09-04 20:58:00,
2013-09-04 17:03:00,75.9,63.3,30.33,WSW,248,6.7,0.0,66,0.00,,CLR,0.00,VWS V13.01,2013-09-04 21:03:00,
2013-09-04 17:08:00,75.9,63.5,30.33,SSE,158,0.4,0.0,65,0.00,,CLR,0.00,VWS V13.01,2013-09-04 21:08:00,
2013-09-04 17:13:00,75.7,63.1,30.33,West,270,0.6,0.0,66,0.00,,CLR,0.00,VWS V13.01,2013-09-04 21:13:00,
2013-09-04 17:18:00,75.7,63.5,30.33,SSE,158,0.6,0.0,66,0.00,,CLR,0.00,VWS V13.01,2013-09-04 21:18:00,
2013-09-04 17:23:00,75.9,63.7,30.33,SSW,202,3.8,0.0,66,0.00,,CLR,0.00,VWS V13.01,2013-09-04 21:23:00,
2013-09-04 17:28:00,75.9,63.7,30.33,SW,225,6.2,0.0,66,0.00,,CLR,0.00,VWS V13.01,2013-09-04 21:28:00,
2013-09-04 17:33:00,75.9,63.5,30.33,SW,225,4.0,0.0,65,0.00,,CLR,0.00,VWS V13.01,2013-09-04 21:33:00,
2013-09-04 17:38:00,75.5,63.5,30.32,SSW,202,2.2,0.0,66,0.00,,CLR,0.00,VWS V13.01,2013-09-04 21:38:00,
2013-09-04 17:43:00,75.5,63.4,30.33,North,0,57.0,0.0,66,0.00,,CLR,0.00,VWS V13.01,2013-09-04 21:43:00,
2013-09-04 17:53:00,75.5,63.2,30.33,SW,225,3.3,0.0,66,0.00,,CLR,0.00,VWS V13.01,2013-09-04 21:53:00,
2013-09-04 17:58:00,75.0,63.2,30.33,South,180,2.2,0.0,66,0.00,,CLR,0.00,VWS V13.01,2013-09-04 21:58:00,
2013-09-04 18:03:00,74.8,62.9,30.33,SW,225,2.2,0.0,66,0.00,,CLR,0.00,VWS V13.01,2013-09-04 22:03:00,
2013-09-04 18:08:00,74.8,62.7,30.33,West,270,3.8,0.0,66,0.00,,CLR,0.00,VWS V13.01,2013-09-04 22:08:00,
2013-09-04 18:13:00,74.8,63.1,30.32,West,270,3.8,0.0,67,0.00,,CLR,0.00,VWS V13.01,2013-09-04 22:13:00,
2013-09-04 18:18:00,74.8,63.1,30.32,WSW,248,0.6,0.0,67,0.00,,CLR,0.00,VWS V13.01,2013-09-04 22:18:00,
2013-09-04 18:23:00,75.0,63.3,30.32,West,270,1.7,0.0,66,0.00,,CLR,0.00,VWS V13.01,2013-09-04 22:23:00,
2013-09-04 18:28:00,75.0,62.9,30.33,WNW,292,0.8,0.0,66,0.00,,CLR,0.00,VWS V13.01,2013-09-04 22:28:00,
2013-09-04 18:33:00,75.0,62.9,30.32,NW,315,1.3,0.0,66,0.00,,CLR,0.00,VWS V13.01,2013-09-04 22:33:00,
2013-09-04 18:38:00,75.0,62.7,30.32,NW,315,1.3,0.0,66,0.00,,CLR,0.00,VWS V13.01,2013-09-04 22:38:00,
2013-09-04 18:43:00,74.8,62.9,30.33,NW,315,1.1,0.0,63,0.00,,CLR,0.00,VWS V13.01,2013-09-04 22:43:00,
2013-09-04 18:48:00,75.0,59.8,30.33,NW,315,3.3,0.0,66,0.00,,CLR,0.00,VWS V13.01,2013-09-04 22:48:00,
2013-09-04 18:53:00,73.5,59.8,30.33,WNW,292,2.9,0.0,61,0.00,,CLR,0.00,VWS V13.01,2013-09-04 22:53:00,
2013-09-04 18:58:00,74.1,59.2,30.33,WNW,292,0.6,0.0,61,0.00,,CLR,0.00,VWS V13.01,2013-09-04 22:58:00,
2013-09-04 19:04:00,72.3,59.8,30.33,NW,315,0.6,0.0,61,0.00,,CLR,0.00,VWS V13.01,2013-09-04 23:04:00,
2013-09-04 19:09:00,72.1,57.5,30.33,WNW,292,2.6,0.0,62,0.00,,CLR,0.00,VWS V13.01,2013-09-04 23:09:00,
2013-09-04 19:14:00,72.1,57.5,30.33,WNW,292,2.6,0.0,62,0.00,,CLR,0.00,VWS V13.01,2013-09-04 23:14:00,
2013-09-04 19:19:00,70.7,56.9,30.34,WNW,292,0.8,0.0,62,0.00,,CLR,0.00,VWS V13.01,2013-09-04 23:19:00,
2013-09-04 19:24:00,70.5,56.8,30.34,NW,315,2.0,0.0,62,0.00,,CLR,0.00,VWS V13.01,2013-09-04 23:24:00,
2013-09-04 19:29:00,69.8,56.3,30.34,NNW,338,2.0,0.0,63,0.00,,CLR,0.00,VWS V13.01,2013-09-04 23:29:00,
2013-09-04 19:34:00,69.4,56.2,30.34,NW,315,2.0,0.0,63,0.00,,CLR,0.00,VWS V13.01,2013-09-04 23:34:00,
2013-09-04 19:39:00,68.9,55.7,30.34,NW,315,2.0,0.0,64,0.00,,CLR,0.00,VWS V13.01,2013-09-04 23:39:00,
2013-09-04 19:44:00,68.1,56.1,30.34,NW,315,2.0,0.0,65,0.00,,CLR,0.00,VWS V13.01,2013-09-04 23:44:00,
2013-09-04 19:49:00,67.8,55.8,30.34,NW,315,2.0,0.0,65,0.00,,CLR,0.00,VWS V13.01,2013-09-04 23:49:00,
2013-09-04 19:56:00,67.1,55.4,30.35,NW,315,2.0,0.0,66,0.00,,CLR,0.00,VWS V13.01,2013-09-04 23:56:00,
2013-09-04 20:01:00,66.7,55.4,30.35,NW,315,2.0,0.0,67,0.00,,CLR,0.00,VWS V13.01,2013-09-05 00:01:00,
2013-09-04 20:06:00,66.3,55.6,30.35,NW,315,2.0,0.0,68,0.00,,CLR,0.00,VWS V13.01,2013-09-05 00:06:00,
2013-09-04 20:11:00,66.0,55.2,30.35,NW,315,2.0,0.0,68,0.00,,CLR,0.00,VWS V13.01,2013-09-05 00:11:00,
2013-09-04 20:16:00,65.8,55.4,30.35,NW,315,2.0,0.0,68,0.00,,CLR,0.00,VWS V13.01,2013-09-05 00:16:00,
2013-09-04 20:21:00,65.4,55.0,30.35,NW,315,2.0,0.0,69,0.00,,CLR,0.00,VWS V13.01,2013-09-05 00:21:00,
2013-09-04 20:26:00,65.1,55.1,30.35,NW,315,2.0,0.0,70,0.00,,CLR,0.00,VWS V13.01,2013-09-05 00:26:00,
2013-09-04 20:31:00,64.9,54.7,30.35,NW,315,2.0,0.0,70,0.00,,CLR,0.00,VWS V13.01,2013-09-05 00:31:00,
2013-09-04 20:36:00,64.5,54.9,30.35,NW,315,2.0,0.0,70,0.00,,CLR,0.00,VWS V13.01,2013-09-05 00:36:00,
2013-09-04 20:41:00,64.2,54.6,30.35,NW,315,2.0,0.0,71,0.00,,CLR,0.00,VWS V13.01,2013-09-05 00:41:00,
2013-09-04 20:46:00,64.0,54.8,30.36,NW,315,2.0,0.0,72,0.00,,CLR,0.00,VWS V13.01,2013-09-05 00:46:00,
2013-09-04 20:51:00,63.6,54.4,30.35,North,0,2.0,0.0,72,0.00,,CLR,0.00,VWS V13.01,2013-09-05 00:51:00,
2013-09-04 20:56:00,63.6,54.7,30.35,North,0,2.0,0.0,72,0.00,,CLR,0.00,VWS V13.01,2013-09-05 00:56:00,
2013-09-04 21:01:00,63.3,54.9,30.35,ENE,68,2.0,0.0,73,0.00,,CLR,0.00,VWS V13.01,2013-09-05 01:01:00,
2013-09-04 21:06:00,63.1,54.7,30.36,ENE,68,2.0,0.0,74,0.00,,CLR,0.00,VWS V13.01,2013-09-05 01:06:00,
2013-09-04 21:11:00,63.1,54.7,30.35,ENE,68,2.0,0.0,74,0.00,,CLR,0.00,VWS V13.01,2013-09-05 01:11:00,
2013-09-04 21:16:00,62.7,55.0,30.36,NE,45,2.0,0.0,75,0.00,,CLR,0.00,VWS V13.01,2013-09-05 01:16:00,
2013-09-04 21:21:00,62.7,55.0,30.36,NE,45,2.0,0.0,76,0.00,,CLR,0.00,VWS V13.01,2013-09-05 01:21:00,
2013-09-04 21:26:00,62.7,55.0,30.36,NE,45,2.0,0.0,76,0.00,,CLR,0.00,VWS V13.01,2013-09-05 01:26:00,
2013-09-04 21:31:00,62.7,55.4,30.36,NNE,22,2.0,0.0,76,0.00,,CLR,0.00,VWS V13.01,2013-09-05 01:31:00,
2013-09-04 21:36:00,62.7,55.4,30.36,NNE,22,2.0,0.0,77,0.00,,CLR,0.00,VWS V13.01,2013-09-05 01:36:00,
2013-09-04 21:42:00,62.7,55.4,30.36,NNE,22,2.0,0.0,77,0.00,,CLR,0.00,VWS V13.01,2013-09-05 01:42:00,
2013-09-04 21:47:00,62.7,55.3,30.36,NNE,22,2.0,0.0,77,0.00,,CLR,0.00,VWS V13.01,2013-09-05 01:47:00,
2013-09-04 21:52:00,62.6,55.5,30.36,NNE,22,2.0,0.0,77,0.00,,CLR,0.00,VWS V13.01,2013-09-05 01:52:00,
2013-09-04 21:57:00,62.4,55.5,30.37,NNE,22,2.0,0.0,78,0.00,,CLR,0.00,VWS V13.01,2013-09-05 01:57:00,
2013-09-04 22:02:00,62.0,55.3,30.37,NNE,22,2.0,0.0,78,0.00,,CLR,0.00,VWS V13.01,2013-09-05 02:02:00,
2013-09-04 22:07:00,62.0,54.9,30.36,NNE,22,2.0,0.0,78,0.00,,CLR,0.00,VWS V13.01,2013-09-05 02:07:00,
2013-09-04 22:12:00,62.0,55.1,30.36,NNE,22,2.0,0.0,78,0.00,,CLR,0.00,VWS V13.01,2013-09-05 02:12:00,
2013-09-04 22:17:00,62.0,54.9,30.36,NNE,22,2.0,0.0,78,0.00,,CLR,0.00,VWS V13.01,2013-09-05 02:17:00,
2013-09-04 22:29:00,60.9,54.7,30.37,NNE,22,2.0,0.0,79,0.00,,CLR,0.00,VWS V13.01,2013-09-05 02:29:00,
2013-09-04 22:34:00,60.9,54.7,30.37,NNE,22,2.0,0.0,79,0.00,,CLR,0.00,VWS V13.01,2013-09-05 02:34:00,
2013-09-04 22:39:00,60.6,54.7,30.37,NNE,22,2.0,0.0,80,0.00,,CLR,0.00,VWS V13.01,2013-09-05 02:39:00,
2013-09-04 22:44:00,60.9,54.4,30.37,NNE,22,2.0,0.0,80,0.00,,CLR,0.00,VWS V13.01,2013-09-05 02:44:00,
2013-09-04 22:50:00,60.6,54.2,30.37,NNE,22,2.0,0.0,80,0.00,,CLR,0.00,VWS V13.01,2013-09-05 02:50:00,
2013-09-04 22:55:00,60.6,54.0,30.37,NNE,22,2.0,0.0,80,0.00,,CLR,0.00,VWS V13.01,2013-09-05 02:55:00,
2013-09-04 23:00:00,60.0,54.2,30.37,NNE,22,2.0,0.0,81,0.00,,CLR,0.00,VWS V13.01,2013-09-05 03:00:00,
2013-09-04 23:05:00,59.9,54.1,30.37,NNE,22,2.0,0.0,81,0.00,,CLR,0.00,VWS V13.01,2013-09-05 03:05:00,
2013-09-04 23:10:00,59.9,53.7,30.37,NNE,22,2.0,0.0,81,0.00,,CLR,0.00,VWS V13.01,2013-09-05 03:10:00,
2013-09-04 23:15:00,59.5,54.1,30.37,ENE,68,2.0,0.0,82,0.00,,CLR,0.00,VWS V13.01,2013-09-05 03:15:00,
2013-09-04 23:20:00,59.1,53.6,30.38,ENE,68,2.0,0.0,82,0.00,,CLR,0.00,VWS V13.01,2013-09-05 03:20:00,
2013-09-04 23:25:00,58.8,53.3,30.38,ESE,112,2.0,0.0,82,0.00,,CLR,0.00,VWS V13.01,2013-09-05 03:25:00,
2013-09-04 23:30:00,58.8,53.7,30.38,ESE,112,2.0,0.0,83,0.00,,CLR,0.00,VWS V13.01,2013-09-05 03:30:00,
2013-09-04 23:35:00,58.6,53.5,30.38,ESE,112,2.0,0.0,83,0.00,,CLR,0.00,VWS V13.01,2013-09-05 03:35:00,
2013-09-04 23:40:00,58.4,53.3,30.38,ESE,112,2.0,0.0,83,0.00,,CLR,0.00,VWS V13.01,2013-09-05 03:40:00,
2013-09-04 23:46:00,58.2,53.1,30.38,ESE,112,2.0,0.0,83,0.00,,CLR,0.00,VWS V13.01,2013-09-05 03:46:00,
2013-09-04 23:51:00,58.1,53.1,30.37,North,0,2.0,0.0,83,0.00,,CLR,0.00,VWS V13.01,2013-09-05 03:51:00,
2013-09-04 23:56:00,58.2,53.3,30.38,ESE,112,2.0,0.0,83,0.00,,CLR,0.00,VWS V13.01,2013-09-05 03:56:00,